When you browse on this site, cookies collect data to enhance your experience and personalize the content and advertising you see.
Visit our Privacy Policy to learn more. By continuing to use the site, you agree to this use of cookies and data.
EN

Hourly Weather Alibunar

Today, 13 August, Thursday

Time Temperature Precipitation Wind Pressure Humidity
00:00 +22°C° 0 mm 1 mps 754 mmHg 65%
01:00 +21°C° 0 mm 1 mps 755 mmHg 68%
02:00 +21°C° 0 mm 1 mps 755 mmHg 71%
03:00 +20°C° 0 mm 1 mps 755 mmHg 74%
04:00 +20°C° 0 mm 1 mps 755 mmHg 76%
05:00 +19°C° 0 mm 0 mps 755 mmHg 71%
06:00 +21°C° 0 mm 0 mps 755 mmHg 65%
07:00 +23°C° 0 mm 0 mps 755 mmHg 59%
08:00 +25°C° 0 mm 0 mps 755 mmHg 52%
09:00 +27°C° 0 mm 0 mps 755 mmHg 44%
10:00 +30°C° 0 mm 0 mps 755 mmHg 37%
11:00 +31°C° 0 mm 0 mps 755 mmHg 32%
12:00 +34°C° 0 mm 1 mps 754 mmHg 27%
13:00 +34°C° 0 mm 1 mps 755 mmHg 23%
14:00 +34°C° 0 mm 1 mps 754 mmHg 22%
15:00 +35°C° 0 mm 2 mps 754 mmHg 22%
16:00 +35°C° 0 mm 2 mps 753 mmHg 21%
17:00 +32°C° 0 mm 2 mps 753 mmHg 26%
18:00 +29°C° 0 mm 2 mps 753 mmHg 31%
19:00 +26°C° 0 mm 1 mps 753 mmHg 36%
20:00 +25°C° 0 mm 2 mps 753 mmHg 39%
21:00 +24°C° 0 mm 2 mps 753 mmHg 43%
22:00 +23°C° 0 mm 2 mps 753 mmHg 46%
23:00 +23°C° 0 mm 2 mps 753 mmHg 47%

Tomorrow, 14 August, Friday

Time Temperature Precipitation Wind Pressure Humidity
00:00 +23°C° 0 mm 2 mps 753 mmHg 48%
01:00 +21°C° 0 mm 2 mps 753 mmHg 49%
02:00 +21°C° 0 mm 2 mps 752 mmHg 51%
03:00 +21°C° 0 mm 2 mps 752 mmHg 54%
04:00 +20°C° 0 mm 2 mps 752 mmHg 57%
05:00 +23°C° 0 mm 2 mps 752 mmHg 54%
06:00 +25°C° 0 mm 2 mps 752 mmHg 52%
07:00 +26°C° 0 mm 2 mps 752 mmHg 49%
08:00 +28°C° 0 mm 2 mps 752 mmHg 45%
09:00 +30°C° 0 mm 2 mps 752 mmHg 41%
10:00 +32°C° 0 mm 2 mps 752 mmHg 37%
11:00 +34°C° 0 mm 2 mps 752 mmHg 36%
12:00 +35°C° 0 mm 2 mps 752 mmHg 34%
13:00 +35°C° 0 mm 3 mps 751 mmHg 33%
14:00 +35°C° 0.2 mm 3 mps 751 mmHg 36%
15:00 +34°C° 0.2 mm 3 mps 751 mmHg 38%
16:00 +33°C° 0.2 mm 4 mps 750 mmHg 41%
17:00 +30°C° 0.5 mm 3 mps 750 mmHg 51%
18:00 +27°C° 0.5 mm 2 mps 751 mmHg 62%
19:00 +25°C° 0.5 mm 1 mps 751 mmHg 72%
20:00 +24°C° 0.6 mm 1 mps 751 mmHg 76%
21:00 +23°C° 0.6 mm 1 mps 751 mmHg 80%
22:00 +23°C° 0.6 mm 1 mps 751 mmHg 84%
23:00 +22°C° 0 mm 1 mps 751 mmHg 85%

Day after tomorrow, 15 August, Saturday

Time Temperature Precipitation Wind Pressure Humidity
00:00 +21°C° 0 mm 2 mps 751 mmHg 86%
01:00 +21°C° 0 mm 2 mps 751 mmHg 87%
02:00 +20°C° 0 mm 2 mps 751 mmHg 88%
03:00 +21°C° 0 mm 1 mps 751 mmHg 89%
04:00 +21°C° 0 mm 1 mps 750 mmHg 90%
05:00 +22°C° 0.2 mm 1 mps 751 mmHg 86%
06:00 +23°C° 0.2 mm 1 mps 751 mmHg 81%
07:00 +24°C° 0.2 mm 1 mps 751 mmHg 77%
08:00 +26°C° 0.3 mm 2 mps 751 mmHg 69%
09:00 +28°C° 0.3 mm 2 mps 751 mmHg 61%
10:00 +30°C° 0.3 mm 2 mps 751 mmHg 53%
11:00 +31°C° 0 mm 2 mps 751 mmHg 48%
12:00 +34°C° 0 mm 2 mps 751 mmHg 43%
13:00 +35°C° 0 mm 2 mps 750 mmHg 39%
14:00 +35°C° 0.1 mm 2 mps 750 mmHg 39%
15:00 +34°C° 0.1 mm 2 mps 750 mmHg 40%
16:00 +34°C° 0.1 mm 2 mps 749 mmHg 41%
17:00 +30°C° 1.5 mm 2 mps 750 mmHg 53%
18:00 +27°C° 1.5 mm 3 mps 750 mmHg 65%
19:00 +24°C° 1.5 mm 3 mps 750 mmHg 77%
20:00 +22°C° 1.1 mm 3 mps 750 mmHg 80%
21:00 +23°C° 1.1 mm 2 mps 750 mmHg 83%
22:00 +21°C° 1.1 mm 2 mps 750 mmHg 86%
23:00 +21°C° 0.6 mm 2 mps 750 mmHg 86%

16 August, Sunday

Time Temperature Precipitation Wind Pressure Humidity
00:00 +20°C° 0.6 mm 2 mps 750 mmHg 87%
01:00 +20°C° 0.6 mm 3 mps 750 mmHg 88%
02:00 +20°C° 0.2 mm 3 mps 751 mmHg 88%
03:00 +20°C° 0.2 mm 3 mps 751 mmHg 89%
04:00 +19°C° 0.2 mm 3 mps 751 mmHg 89%
05:00 +20°C° 0.1 mm 4 mps 751 mmHg 83%
06:00 +21°C° 0.1 mm 4 mps 751 mmHg 78%
07:00 +22°C° 0.1 mm 5 mps 752 mmHg 73%
08:00 +25°C° 0 mm 5 mps 752 mmHg 66%
09:00 +26°C° 0 mm 5 mps 752 mmHg 59%
10:00 +28°C° 0 mm 5 mps 752 mmHg 52%
11:00 +29°C° 0 mm 5 mps 752 mmHg 49%
12:00 +30°C° 0 mm 5 mps 752 mmHg 46%
13:00 +33°C° 0 mm 5 mps 752 mmHg 43%
14:00 +33°C° 0 mm 5 mps 752 mmHg 43%
15:00 +33°C° 0 mm 4 mps 751 mmHg 43%
16:00 +33°C° 0 mm 4 mps 751 mmHg 43%
17:00 +30°C° 0 mm 4 mps 751 mmHg 49%
18:00 +28°C° 0 mm 3 mps 752 mmHg 55%
19:00 +26°C° 0 mm 3 mps 752 mmHg 60%
20:00 +26°C° 0 mm 3 mps 752 mmHg 62%
21:00 +25°C° 0 mm 4 mps 752 mmHg 64%
22:00 +23°C° 0 mm 4 mps 752 mmHg 66%
23:00 +24°C° 0 mm 3 mps 752 mmHg 66%

17 August, Monday

Time Temperature Precipitation Wind Pressure Humidity
00:00 +22°C° 0 mm 3 mps 752 mmHg 67%
01:00 +22°C° 0 mm 3 mps 752 mmHg 67%
02:00 +22°C° 0 mm 3 mps 752 mmHg 66%
03:00 +21°C° 0 mm 3 mps 752 mmHg 65%
04:00 +21°C° 0 mm 4 mps 752 mmHg 63%
05:00 +22°C° 0 mm 4 mps 752 mmHg 59%
06:00 +23°C° 0 mm 5 mps 752 mmHg 55%
07:00 +24°C° 0 mm 6 mps 752 mmHg 51%
08:00 +27°C° 0 mm 6 mps 752 mmHg 47%
09:00 +29°C° 0 mm 6 mps 752 mmHg 42%
10:00 +32°C° 0 mm 6 mps 752 mmHg 38%
11:00 +33°C° 0 mm 6 mps 752 mmHg 36%
12:00 +34°C° 0 mm 5 mps 751 mmHg 35%
13:00 +35°C° 0 mm 5 mps 751 mmHg 33%
14:00 +35°C° 0 mm 5 mps 750 mmHg 34%
15:00 +35°C° 0 mm 5 mps 750 mmHg 34%
16:00 +35°C° 0 mm 4 mps 750 mmHg 34%
17:00 +33°C° 0 mm 4 mps 750 mmHg 40%
18:00 +30°C° 0 mm 4 mps 750 mmHg 46%
19:00 +28°C° 0 mm 4 mps 750 mmHg 51%
20:00 +27°C° 0.2 mm 4 mps 750 mmHg 54%
21:00 +26°C° 0.2 mm 3 mps 750 mmHg 57%
22:00 +25°C° 0.2 mm 3 mps 750 mmHg 59%
23:00 +24°C° 0 mm 3 mps 749 mmHg 60%

18 August, Tuesday

Time Temperature Precipitation Wind Pressure Humidity
00:00 +24°C° 0 mm 3 mps 749 mmHg 60%
01:00 +22°C° 0 mm 3 mps 749 mmHg 60%
02:00 +22°C° 0.1 mm 3 mps 749 mmHg 62%
03:00 +21°C° 0.1 mm 3 mps 749 mmHg 64%
04:00 +21°C° 0.1 mm 3 mps 748 mmHg 66%
05:00 +22°C° 0.1 mm 3 mps 748 mmHg 63%
06:00 +23°C° 0.1 mm 4 mps 748 mmHg 61%
07:00 +26°C° 0.1 mm 4 mps 748 mmHg 58%
08:00 +28°C° 0.1 mm 4 mps 748 mmHg 53%
09:00 +30°C° 0.1 mm 4 mps 748 mmHg 47%
10:00 +33°C° 0.1 mm 4 mps 748 mmHg 42%
11:00 +34°C° 0 mm 4 mps 748 mmHg 39%
12:00 +35°C° 0 mm 3 mps 748 mmHg 36%
13:00 +36°C° 0 mm 3 mps 747 mmHg 33%
14:00 +36°C° 0.3 mm 3 mps 747 mmHg 35%
15:00 +35°C° 0.3 mm 4 mps 746 mmHg 37%
16:00 +34°C° 0.3 mm 4 mps 746 mmHg 38%
17:00 +30°C° 1.2 mm 4 mps 746 mmHg 51%
18:00 +26°C° 1.2 mm 4 mps 747 mmHg 64%
19:00 +22°C° 1.2 mm 3 mps 747 mmHg 76%
20:00 +21°C° 1.1 mm 3 mps 748 mmHg 81%
21:00 +21°C° 1.1 mm 3 mps 748 mmHg 86%
22:00 +21°C° 1.1 mm 3 mps 749 mmHg 91%
23:00 +20°C° 0.3 mm 3 mps 749 mmHg 92%
Show more